Data supplied by UK-AIR on 2/5/2024
All Data GMT hour ending 
Status: R =Ratified P=Provisional,P*=As supplied
,,Scunthorpe Town,,,,,,,,,,,,,,,,,,,,,,,
Date,time,"PM<sub>10</sub> particulate matter (Hourly measured)",status,unit,"Nitric oxide",status,unit,"Nitrogen dioxide",status,unit,"Nitrogen oxides as nitrogen dioxide",status,unit,"Sulphur dioxide",status,unit
 
01-01-2024,01:00,11.594,P,ugm-3 (Ref.eq),0.71096,P,ugm-3,3.87600,P,ugm-3,4.96613,P,ugm-3,1.99568,P,ugm-3
01-01-2024,02:00,11.594,P,ugm-3 (Ref.eq),0.51347,P,ugm-3,3.99713,P,ugm-3,4.78444,P,ugm-3,2.07550,P,ugm-3
01-01-2024,03:00,6.763,P,ugm-3 (Ref.eq),,,,,,,,,,2.03559,P,ugm-3
01-01-2024,04:00,5.797,P,ugm-3 (Ref.eq),,,,,,,,,,1.91585,P,ugm-3
01-01-2024,05:00,7.730,P,ugm-3 (Ref.eq),,,,,,,,,,1.79611,P,ugm-3
01-01-2024,06:00,8.696,P,ugm-3 (Ref.eq),,,,,,,,,,1.73624,P,ugm-3
01-01-2024,07:00,9.662,P,ugm-3 (Ref.eq),,,,,,,,,,1.67637,P,ugm-3
01-01-2024,08:00,6.763,P,ugm-3 (Ref.eq),,,,,,,,,,1.67637,P,ugm-3
01-01-2024,09:00,11.594,P,ugm-3 (Ref.eq),,,,,,,,,,1.61650,P,ugm-3
01-01-2024,10:00,7.730,P,ugm-3 (Ref.eq),,,,,,,,,,1.67637,P,ugm-3
01-01-2024,11:00,9.662,P,ugm-3 (Ref.eq),,,,,,,,,,1.73624,P,ugm-3
01-01-2024,12:00,9.662,P,ugm-3 (Ref.eq),,,,,,,,,,1.79611,P,ugm-3
01-01-2024,13:00,14.493,P,ugm-3 (Ref.eq),,,,,,,,,,1.67637,P,ugm-3
01-01-2024,14:00,10.628,P,ugm-3 (Ref.eq),,,,,,,,,,1.91585,P,ugm-3
01-01-2024,15:00,10.628,P,ugm-3 (Ref.eq),,,,,,,,,,2.09546,P,ugm-3
01-01-2024,16:00,13.527,P,ugm-3 (Ref.eq),,,,,,,,,,1.91585,P,ugm-3
01-01-2024,17:00,13.527,P,ugm-3 (Ref.eq),,,,,,,,,,1.91585,P,ugm-3
01-01-2024,18:00,19.324,P,ugm-3 (Ref.eq),,,,,,,,,,1.79611,P,ugm-3
01-01-2024,19:00,12.561,P,ugm-3 (Ref.eq),,,,,,,,,,1.67637,P,ugm-3
01-01-2024,20:00,15.459,P,ugm-3 (Ref.eq),,,,,,,,,,1.67637,P,ugm-3
01-01-2024,21:00,45.411,P,ugm-3 (Ref.eq),,,,,,,,,,3.41260,P,ugm-3
01-01-2024,22:00,23.189,P,ugm-3 (Ref.eq),,,,,,,,,,7.06469,P,ugm-3
01-01-2024,23:00,44.445,P,ugm-3 (Ref.eq),,,,,,,,,,11.43522,P,ugm-3
01-01-2024,24:00,8.696,P,ugm-3 (Ref.eq),,,,,,,,,,3.83170,P,ugm-3
02-01-2024,01:00,5.797,P,ugm-3 (Ref.eq),,,,,,,,,,2.63429,P,ugm-3
02-01-2024,02:00,2.899,P,ugm-3 (Ref.eq),,,,,,,,,,2.23516,P,ugm-3
02-01-2024,03:00,8.696,P,ugm-3 (Ref.eq),,,,,,,,,,1.91585,P,ugm-3
02-01-2024,04:00,5.797,P,ugm-3 (Ref.eq),,,,,,,,,,1.91585,P,ugm-3
02-01-2024,05:00,10.628,P,ugm-3 (Ref.eq),,,,,,,,,,1.91585,P,ugm-3
02-01-2024,06:00,12.561,P,ugm-3 (Ref.eq),,,,,,,,,,1.85598,P,ugm-3
02-01-2024,07:00,16.425,P,ugm-3 (Ref.eq),,,,,,,,,,1.73624,P,ugm-3
02-01-2024,08:00,14.493,P,ugm-3 (Ref.eq),,,,,,,,,,1.73624,P,ugm-3
02-01-2024,09:00,16.425,P,ugm-3 (Ref.eq),,,,,,,,,,1.73624,P,ugm-3
02-01-2024,10:00,15.459,P,ugm-3 (Ref.eq),,,,,,,,,,1.85598,P,ugm-3
02-01-2024,11:00,22.223,P,ugm-3 (Ref.eq),,,,,,,,,,1.85598,P,ugm-3
02-01-2024,12:00,17.392,P,ugm-3 (Ref.eq),,,,,,,,,,1.91585,P,ugm-3
02-01-2024,13:00,7.730,P,ugm-3 (Ref.eq),,,,,,,,,,1.97572,P,ugm-3
02-01-2024,14:00,21.256,P,ugm-3 (Ref.eq),,,,,,,,,,1.91585,P,ugm-3
02-01-2024,15:00,8.696,P,ugm-3 (Ref.eq),,,,,,,,,,1.79611,P,ugm-3
02-01-2024,16:00,11.594,P,ugm-3 (Ref.eq),,,,,,,,,,1.91585,P,ugm-3
02-01-2024,17:00,6.763,P,ugm-3 (Ref.eq),,,,,,,,,,1.91585,P,ugm-3
02-01-2024,18:00,7.730,P,ugm-3 (Ref.eq),,,,,,,,,,1.91585,P,ugm-3
02-01-2024,19:00,9.662,P,ugm-3 (Ref.eq),,,,,,,,,,1.79611,P,ugm-3
02-01-2024,20:00,7.730,P,ugm-3 (Ref.eq),,,,,,,,,,1.67637,P,ugm-3
02-01-2024,21:00,5.797,P,ugm-3 (Ref.eq),,,,,,,,,,1.79611,P,ugm-3
02-01-2024,22:00,5.797,P,ugm-3 (Ref.eq),,,,,,,,,,1.73624,P,ugm-3
02-01-2024,23:00,5.797,P,ugm-3 (Ref.eq),,,,,,,,,,1.85598,P,ugm-3
02-01-2024,24:00,4.831,P,ugm-3 (Ref.eq),,,,,,,,,,1.85598,P,ugm-3
03-01-2024,01:00,4.831,P,ugm-3 (Ref.eq),,,,,,,,,,1.67637,P,ugm-3
03-01-2024,02:00,3.865,P,ugm-3 (Ref.eq),,,,,,,,,,1.43689,P,ugm-3
03-01-2024,03:00,2.899,P,ugm-3 (Ref.eq),,,,,,,,,,1.61650,P,ugm-3
03-01-2024,04:00,5.797,P,ugm-3 (Ref.eq),,,,,,,,,,1.73624,P,ugm-3
03-01-2024,05:00,6.763,P,ugm-3 (Ref.eq),,,,,,,,,,1.67637,P,ugm-3
03-01-2024,06:00,3.865,P,ugm-3 (Ref.eq),,,,,,,,,,1.67637,P,ugm-3
03-01-2024,07:00,6.763,P,ugm-3 (Ref.eq),,,,,,,,,,1.85598,P,ugm-3
03-01-2024,08:00,7.730,P,ugm-3 (Ref.eq),,,,,,,,,,1.79611,P,ugm-3
03-01-2024,09:00,,,,,,,,,,,,,,,
03-01-2024,10:00,,,,,,,,,,,,,,,
03-01-2024,11:00,20.290,P,ugm-3 (Ref.eq),,,,,,,,,,2.51455,P,ugm-3
03-01-2024,12:00,11.594,P,ugm-3 (Ref.eq),,,,,,,,,,2.33494,P,ugm-3
03-01-2024,13:00,12.561,P,ugm-3 (Ref.eq),,,,,,,,,,2.21520,P,ugm-3
03-01-2024,14:00,9.662,P,ugm-3 (Ref.eq),,,,,,,,,,2.03559,P,ugm-3
03-01-2024,15:00,15.459,P,ugm-3 (Ref.eq),,,,,,,,,,1.97572,P,ugm-3
03-01-2024,16:00,12.561,P,ugm-3 (Ref.eq),,,,,,,,,,2.03559,P,ugm-3
03-01-2024,17:00,23.189,P,ugm-3 (Ref.eq),,,,,,,,,,2.21520,P,ugm-3
03-01-2024,18:00,24.155,P,ugm-3 (Ref.eq),,,,,,,,,,2.93364,P,ugm-3
03-01-2024,19:00,24.155,P,ugm-3 (Ref.eq),,,,,,,,,,2.93364,P,ugm-3
03-01-2024,20:00,24.155,P,ugm-3 (Ref.eq),,,,,,,,,,2.69416,P,ugm-3
03-01-2024,21:00,10.628,P,ugm-3 (Ref.eq),,,,,,,,,,3.17312,P,ugm-3
03-01-2024,22:00,16.425,P,ugm-3 (Ref.eq),,,,,,,,,,3.05338,P,ugm-3
03-01-2024,23:00,15.459,P,ugm-3 (Ref.eq),,,,,,,,,,3.23299,P,ugm-3
03-01-2024,24:00,8.696,P,ugm-3 (Ref.eq),,,,,,,,,,2.99351,P,ugm-3
04-01-2024,01:00,6.763,P,ugm-3 (Ref.eq),,,,,,,,,,2.87377,P,ugm-3
04-01-2024,02:00,8.696,P,ugm-3 (Ref.eq),,,,,,,,,,2.63429,P,ugm-3
04-01-2024,03:00,7.730,P,ugm-3 (Ref.eq),,,,,,,,,,2.39481,P,ugm-3
04-01-2024,04:00,4.831,P,ugm-3 (Ref.eq),,,,,,,,,,2.21520,P,ugm-3
04-01-2024,05:00,11.594,P,ugm-3 (Ref.eq),,,,,,,,,,2.03559,P,ugm-3
04-01-2024,06:00,9.662,P,ugm-3 (Ref.eq),,,,,,,,,,1.97572,P,ugm-3
04-01-2024,07:00,8.696,P,ugm-3 (Ref.eq),,,,,,,,,,1.91585,P,ugm-3
04-01-2024,08:00,5.797,P,ugm-3 (Ref.eq),,,,,,,,,,1.85598,P,ugm-3
04-01-2024,09:00,6.763,P,ugm-3 (Ref.eq),,,,,,,,,,1.67637,P,ugm-3
04-01-2024,10:00,5.797,P,ugm-3 (Ref.eq),,,,,,,,,,1.67637,P,ugm-3
04-01-2024,11:00,7.730,P,ugm-3 (Ref.eq),,,,,,,,,,1.91585,P,ugm-3
04-01-2024,12:00,8.696,P,ugm-3 (Ref.eq),4.30526,P,ugm-3,9.20550,P,ugm-3,15.80681,P,ugm-3,1.75619,P,ugm-3
04-01-2024,13:00,15.459,P,ugm-3 (Ref.eq),4.44351,P,ugm-3,8.22136,P,ugm-3,15.03464,P,ugm-3,1.91585,P,ugm-3
04-01-2024,14:00,11.594,P,ugm-3 (Ref.eq),5.21371,P,ugm-3,9.90197,P,ugm-3,17.89622,P,ugm-3,1.79611,P,ugm-3
04-01-2024,15:00,13.527,P,ugm-3 (Ref.eq),5.06560,P,ugm-3,13.71741,P,ugm-3,21.48455,P,ugm-3,1.73624,P,ugm-3
04-01-2024,16:00,17.392,P,ugm-3 (Ref.eq),6.66526,P,ugm-3,28.47952,P,ugm-3,38.69944,P,ugm-3,1.79611,P,ugm-3
04-01-2024,17:00,20.290,P,ugm-3 (Ref.eq),12.58993,P,ugm-3,42.69656,P,ugm-3,62.00086,P,ugm-3,2.09546,P,ugm-3
04-01-2024,18:00,22.223,P,ugm-3 (Ref.eq),28.29032,P,ugm-3,52.41684,P,ugm-3,95.79473,P,ugm-3,2.75403,P,ugm-3
04-01-2024,19:00,26.087,P,ugm-3 (Ref.eq),27.07577,P,ugm-3,46.82995,P,ugm-3,88.34555,P,ugm-3,2.51455,P,ugm-3
04-01-2024,20:00,30.918,P,ugm-3 (Ref.eq),67.69929,P,ugm-3,51.11475,P,ugm-3,154.91887,P,ugm-3,3.95144,P,ugm-3
04-01-2024,21:00,22.223,P,ugm-3 (Ref.eq),43.75373,P,ugm-3,36.65545,P,ugm-3,103.74356,P,ugm-3,3.17312,P,ugm-3
04-01-2024,22:00,17.392,P,ugm-3 (Ref.eq),12.73805,P,ugm-3,30.47808,P,ugm-3,50.00948,P,ugm-3,2.15533,P,ugm-3
04-01-2024,23:00,17.392,P,ugm-3 (Ref.eq),6.72451,P,ugm-3,28.43409,P,ugm-3,38.74486,P,ugm-3,1.91585,P,ugm-3
04-01-2024,24:00,27.054,P,ugm-3 (Ref.eq),12.94542,P,ugm-3,46.33031,P,ugm-3,66.17967,P,ugm-3,2.09546,P,ugm-3
05-01-2024,01:00,22.223,P,ugm-3 (Ref.eq),2.66610,P,ugm-3,26.75348,P,ugm-3,30.84145,P,ugm-3,1.83602,P,ugm-3
05-01-2024,02:00,28.020,P,ugm-3 (Ref.eq),1.54042,P,ugm-3,14.48958,P,ugm-3,16.85152,P,ugm-3,1.67637,P,ugm-3
05-01-2024,03:00,25.121,P,ugm-3 (Ref.eq),1.65891,P,ugm-3,11.74912,P,ugm-3,14.29275,P,ugm-3,1.67637,P,ugm-3
05-01-2024,04:00,16.425,P,ugm-3 (Ref.eq),1.42192,P,ugm-3,7.99425,P,ugm-3,10.17450,P,ugm-3,1.67637,P,ugm-3
05-01-2024,05:00,22.223,P,ugm-3 (Ref.eq),1.51079,P,ugm-3,8.31220,P,ugm-3,10.62872,P,ugm-3,1.67637,P,ugm-3
05-01-2024,06:00,22.223,P,ugm-3 (Ref.eq),2.07364,P,ugm-3,7.85798,P,ugm-3,11.03752,P,ugm-3,1.67637,P,ugm-3
05-01-2024,07:00,17.392,P,ugm-3 (Ref.eq),2.60686,P,ugm-3,10.81041,P,ugm-3,14.80753,P,ugm-3,1.55663,P,ugm-3
05-01-2024,08:00,9.662,P,ugm-3 (Ref.eq),4.32501,P,ugm-3,15.85223,P,ugm-3,22.48383,P,ugm-3,1.55663,P,ugm-3
05-01-2024,09:00,7.730,P,ugm-3 (Ref.eq),7.40584,P,ugm-3,21.25744,P,ugm-3,32.61291,P,ugm-3,1.73624,P,ugm-3
05-01-2024,10:00,9.662,P,ugm-3 (Ref.eq),6.33940,P,ugm-3,21.57539,P,ugm-3,31.29567,P,ugm-3,1.67637,P,ugm-3
05-01-2024,11:00,14.493,P,ugm-3 (Ref.eq),5.06560,P,ugm-3,17.98706,P,ugm-3,25.75420,P,ugm-3,1.67637,P,ugm-3
05-01-2024,12:00,0.966,P,ugm-3 (Ref.eq),4.65087,P,ugm-3,13.62656,P,ugm-3,20.75780,P,ugm-3,1.61650,P,ugm-3
05-01-2024,13:00,13.527,P,ugm-3 (Ref.eq),2.84384,P,ugm-3,7.94883,P,ugm-3,12.30933,P,ugm-3,1.55663,P,ugm-3
05-01-2024,14:00,8.696,P,ugm-3 (Ref.eq),2.96234,P,ugm-3,8.35763,P,ugm-3,12.89981,P,ugm-3,1.43689,P,ugm-3
05-01-2024,15:00,10.628,P,ugm-3 (Ref.eq),2.87347,P,ugm-3,9.17522,P,ugm-3,13.58114,P,ugm-3,1.43689,P,ugm-3
05-01-2024,16:00,16.425,P,ugm-3 (Ref.eq),3.76217,P,ugm-3,14.58042,P,ugm-3,20.34900,P,ugm-3,1.43689,P,ugm-3
05-01-2024,17:00,19.324,P,ugm-3 (Ref.eq),2.13288,P,ugm-3,12.30933,P,ugm-3,15.57970,P,ugm-3,1.43689,P,ugm-3
05-01-2024,18:00,16.425,P,ugm-3 (Ref.eq),2.28100,P,ugm-3,17.48742,P,ugm-3,20.98491,P,ugm-3,1.43689,P,ugm-3
05-01-2024,19:00,15.459,P,ugm-3 (Ref.eq),1.59966,P,ugm-3,11.76427,P,ugm-3,14.21705,P,ugm-3,1.43689,P,ugm-3
05-01-2024,20:00,16.425,P,ugm-3 (Ref.eq),5.30258,P,ugm-3,29.02458,P,ugm-3,37.15509,P,ugm-3,1.49676,P,ugm-3
05-01-2024,21:00,14.493,P,ugm-3 (Ref.eq),2.07364,P,ugm-3,22.12045,P,ugm-3,25.29998,P,ugm-3,1.43689,P,ugm-3
05-01-2024,22:00,17.392,P,ugm-3 (Ref.eq),2.22175,P,ugm-3,18.44128,P,ugm-3,21.84792,P,ugm-3,1.49676,P,ugm-3
05-01-2024,23:00,18.358,P,ugm-3 (Ref.eq),1.61941,P,ugm-3,11.87025,P,ugm-3,14.35331,P,ugm-3,1.43689,P,ugm-3
05-01-2024,24:00,9.662,P,ugm-3 (Ref.eq),1.68853,P,ugm-3,12.71813,P,ugm-3,15.30717,P,ugm-3,1.55663,P,ugm-3
06-01-2024,01:00,9.662,P,ugm-3 (Ref.eq),1.45155,P,ugm-3,10.44703,P,ugm-3,12.67270,P,ugm-3,1.43689,P,ugm-3
06-01-2024,02:00,11.594,P,ugm-3 (Ref.eq),1.59966,P,ugm-3,6.44991,P,ugm-3,8.90269,P,ugm-3,1.19741,P,ugm-3
06-01-2024,03:00,9.662,P,ugm-3 (Ref.eq),1.45155,P,ugm-3,4.95098,P,ugm-3,7.17666,P,ugm-3,1.25728,P,ugm-3
06-01-2024,04:00,10.628,P,ugm-3 (Ref.eq),2.42912,P,ugm-3,6.54075,P,ugm-3,10.26534,P,ugm-3,1.43689,P,ugm-3
06-01-2024,05:00,8.696,P,ugm-3 (Ref.eq),1.74778,P,ugm-3,3.54291,P,ugm-3,6.22280,P,ugm-3,1.19741,P,ugm-3
06-01-2024,06:00,7.730,P,ugm-3 (Ref.eq),1.45155,P,ugm-3,4.22423,P,ugm-3,6.44991,P,ugm-3,1.25728,P,ugm-3
06-01-2024,07:00,9.662,P,ugm-3 (Ref.eq),3.08083,P,ugm-3,7.57031,P,ugm-3,12.29419,P,ugm-3,1.19741,P,ugm-3
06-01-2024,08:00,7.730,P,ugm-3 (Ref.eq),1.77740,P,ugm-3,7.31292,P,ugm-3,10.03823,P,ugm-3,1.19741,P,ugm-3
06-01-2024,09:00,12.561,P,ugm-3 (Ref.eq),1.98477,P,ugm-3,9.53859,P,ugm-3,12.58186,P,ugm-3,1.19741,P,ugm-3
06-01-2024,10:00,13.527,P,ugm-3 (Ref.eq),3.79179,P,ugm-3,9.81113,P,ugm-3,15.62513,P,ugm-3,1.25728,P,ugm-3
06-01-2024,11:00,15.459,P,ugm-3 (Ref.eq),3.88066,P,ugm-3,10.49245,P,ugm-3,16.44272,P,ugm-3,1.37702,P,ugm-3
06-01-2024,12:00,18.358,P,ugm-3 (Ref.eq),5.77656,P,ugm-3,10.58330,P,ugm-3,19.44056,P,ugm-3,1.31715,P,ugm-3
06-01-2024,13:00,9.662,P,ugm-3 (Ref.eq),4.17690,P,ugm-3,8.40305,P,ugm-3,14.80753,P,ugm-3,1.19741,P,ugm-3
06-01-2024,14:00,13.527,P,ugm-3 (Ref.eq),5.33221,P,ugm-3,10.94667,P,ugm-3,19.12261,P,ugm-3,1.31715,P,ugm-3
06-01-2024,15:00,14.493,P,ugm-3 (Ref.eq),3.05121,P,ugm-3,12.17306,P,ugm-3,16.85152,P,ugm-3,1.19741,P,ugm-3
06-01-2024,16:00,16.425,P,ugm-3 (Ref.eq),3.49556,P,ugm-3,15.39802,P,ugm-3,20.75780,P,ugm-3,1.07767,P,ugm-3
06-01-2024,17:00,9.662,P,ugm-3 (Ref.eq),3.11045,P,ugm-3,15.62513,P,ugm-3,20.39442,P,ugm-3,1.19741,P,ugm-3
06-01-2024,18:00,14.493,P,ugm-3 (Ref.eq),3.58443,P,ugm-3,14.80753,P,ugm-3,20.30358,P,ugm-3,1.25728,P,ugm-3
06-01-2024,19:00,15.459,P,ugm-3 (Ref.eq),2.48836,P,ugm-3,12.35475,P,ugm-3,16.17019,P,ugm-3,1.19741,P,ugm-3
06-01-2024,20:00,13.527,P,ugm-3 (Ref.eq),2.45874,P,ugm-3,11.17378,P,ugm-3,14.94380,P,ugm-3,1.19741,P,ugm-3
06-01-2024,21:00,13.527,P,ugm-3 (Ref.eq),1.92552,P,ugm-3,8.94811,P,ugm-3,11.90053,P,ugm-3,1.19741,P,ugm-3
06-01-2024,22:00,11.594,P,ugm-3 (Ref.eq),1.62929,P,ugm-3,10.44703,P,ugm-3,12.94523,P,ugm-3,1.07767,P,ugm-3
06-01-2024,23:00,11.594,P,ugm-3 (Ref.eq),1.77740,P,ugm-3,14.53500,P,ugm-3,17.26031,P,ugm-3,1.07767,P,ugm-3
06-01-2024,24:00,11.594,P,ugm-3 (Ref.eq),1.48117,P,ugm-3,4.72388,P,ugm-3,6.99497,P,ugm-3,1.13754,P,ugm-3
07-01-2024,01:00,9.662,P,ugm-3 (Ref.eq),1.24418,P,ugm-3,7.67630,P,ugm-3,9.58402,P,ugm-3,1.03775,P,ugm-3
07-01-2024,02:00,12.561,P,ugm-3 (Ref.eq),1.39230,P,ugm-3,2.45278,P,ugm-3,4.58761,P,ugm-3,1.03775,P,ugm-3
07-01-2024,03:00,9.662,P,ugm-3 (Ref.eq),1.36268,P,ugm-3,5.54147,P,ugm-3,7.63088,P,ugm-3,1.07767,P,ugm-3
07-01-2024,04:00,9.662,P,ugm-3 (Ref.eq),1.39230,P,ugm-3,3.13411,P,ugm-3,5.26894,P,ugm-3,1.19741,P,ugm-3
07-01-2024,05:00,10.628,P,ugm-3 (Ref.eq),1.45155,P,ugm-3,4.72388,P,ugm-3,6.94955,P,ugm-3,1.01779,P,ugm-3
07-01-2024,06:00,6.763,P,ugm-3 (Ref.eq),1.45155,P,ugm-3,2.08941,P,ugm-3,4.31508,P,ugm-3,1.07767,P,ugm-3
07-01-2024,07:00,5.797,P,ugm-3 (Ref.eq),1.36268,P,ugm-3,3.86086,P,ugm-3,5.95027,P,ugm-3,0.95792,P,ugm-3
07-01-2024,08:00,6.763,P,ugm-3 (Ref.eq),1.48117,P,ugm-3,13.08150,P,ugm-3,15.35259,P,ugm-3,0.95792,P,ugm-3
07-01-2024,09:00,6.763,P,ugm-3 (Ref.eq),1.51079,P,ugm-3,9.49317,P,ugm-3,11.80969,P,ugm-3,0.77831,P,ugm-3
07-01-2024,10:00,8.696,P,ugm-3 (Ref.eq),1.86627,P,ugm-3,8.44847,P,ugm-3,11.31005,P,ugm-3,0.77831,P,ugm-3
07-01-2024,11:00,11.594,P,ugm-3 (Ref.eq),1.68853,P,ugm-3,2.49820,P,ugm-3,5.08725,P,ugm-3,0.95792,P,ugm-3
07-01-2024,12:00,11.594,P,ugm-3 (Ref.eq),1.92552,P,ugm-3,3.77002,P,ugm-3,6.72244,P,ugm-3,0.95792,P,ugm-3
07-01-2024,13:00,16.425,P,ugm-3 (Ref.eq),1.92552,P,ugm-3,3.72459,P,ugm-3,6.67702,P,ugm-3,1.01779,P,ugm-3
07-01-2024,14:00,9.662,P,ugm-3 (Ref.eq),1.71816,P,ugm-3,1.81688,P,ugm-3,4.45134,P,ugm-3,0.89805,P,ugm-3
07-01-2024,15:00,8.696,P,ugm-3 (Ref.eq),1.74778,P,ugm-3,2.04398,P,ugm-3,4.72388,P,ugm-3,0.95792,P,ugm-3
07-01-2024,16:00,12.561,P,ugm-3 (Ref.eq),1.59966,P,ugm-3,4.22423,P,ugm-3,6.67702,P,ugm-3,0.83818,P,ugm-3
07-01-2024,17:00,16.425,P,ugm-3 (Ref.eq),1.45155,P,ugm-3,3.40664,P,ugm-3,5.63231,P,ugm-3,0.95792,P,ugm-3
07-01-2024,18:00,15.459,P,ugm-3 (Ref.eq),1.39230,P,ugm-3,7.94883,P,ugm-3,10.08366,P,ugm-3,0.89805,P,ugm-3
07-01-2024,19:00,11.594,P,ugm-3 (Ref.eq),1.39230,P,ugm-3,7.58545,P,ugm-3,9.72028,P,ugm-3,0.95792,P,ugm-3
07-01-2024,20:00,18.358,P,ugm-3 (Ref.eq),5.80618,P,ugm-3,23.98275,P,ugm-3,32.88544,P,ugm-3,1.01779,P,ugm-3
07-01-2024,21:00,14.493,P,ugm-3 (Ref.eq),1.98477,P,ugm-3,11.17378,P,ugm-3,14.21705,P,ugm-3,0.89805,P,ugm-3
07-01-2024,22:00,16.425,P,ugm-3 (Ref.eq),3.02158,P,ugm-3,17.98706,P,ugm-3,22.62009,P,ugm-3,1.19741,P,ugm-3
07-01-2024,23:00,22.223,P,ugm-3 (Ref.eq),2.54761,P,ugm-3,24.16444,P,ugm-3,28.07072,P,ugm-3,1.31715,P,ugm-3
07-01-2024,24:00,23.189,P,ugm-3 (Ref.eq),9.12400,P,ugm-3,36.29208,P,ugm-3,50.28202,P,ugm-3,1.37702,P,ugm-3
08-01-2024,01:00,22.223,P,ugm-3 (Ref.eq),1.50092,P,ugm-3,9.81113,P,ugm-3,12.11250,P,ugm-3,1.43689,P,ugm-3
08-01-2024,02:00,9.662,P,ugm-3 (Ref.eq),2.45874,P,ugm-3,11.71884,P,ugm-3,15.48886,P,ugm-3,1.35706,P,ugm-3
08-01-2024,03:00,9.662,P,ugm-3 (Ref.eq),1.42192,P,ugm-3,11.58258,P,ugm-3,13.76283,P,ugm-3,1.25728,P,ugm-3
08-01-2024,04:00,11.594,P,ugm-3 (Ref.eq),1.59966,P,ugm-3,6.44991,P,ugm-3,8.90269,P,ugm-3,1.13754,P,ugm-3
08-01-2024,05:00,7.730,P,ugm-3 (Ref.eq),1.45155,P,ugm-3,4.81472,P,ugm-3,7.04039,P,ugm-3,0.89805,P,ugm-3
08-01-2024,06:00,5.797,P,ugm-3 (Ref.eq),2.87347,P,ugm-3,21.21202,P,ugm-3,25.61794,P,ugm-3,0.95792,P,ugm-3
08-01-2024,07:00,13.527,P,ugm-3 (Ref.eq),12.11596,P,ugm-3,49.01020,P,ugm-3,67.58775,P,ugm-3,1.13754,P,ugm-3
08-01-2024,08:00,11.594,P,ugm-3 (Ref.eq),7.22810,P,ugm-3,29.79675,P,ugm-3,40.87969,P,ugm-3,1.37702,P,ugm-3
08-01-2024,09:00,26.087,P,ugm-3 (Ref.eq),2.34025,P,ugm-3,16.48814,P,ugm-3,20.07647,P,ugm-3,1.13754,P,ugm-3
08-01-2024,10:00,15.459,P,ugm-3 (Ref.eq),2.31062,P,ugm-3,13.85367,P,ugm-3,17.39658,P,ugm-3,0.95792,P,ugm-3
08-01-2024,11:00,22.223,P,ugm-3 (Ref.eq),2.13288,P,ugm-3,8.67558,P,ugm-3,11.94595,P,ugm-3,0.89805,P,ugm-3
08-01-2024,12:00,27.054,P,ugm-3 (Ref.eq),2.63648,P,ugm-3,9.99281,P,ugm-3,14.03536,P,ugm-3,0.95792,P,ugm-3
08-01-2024,13:00,15.459,P,ugm-3 (Ref.eq),2.22175,P,ugm-3,7.04039,P,ugm-3,10.44703,P,ugm-3,0.71844,P,ugm-3
08-01-2024,14:00,25.121,P,ugm-3 (Ref.eq),2.42912,P,ugm-3,9.40233,P,ugm-3,13.12692,P,ugm-3,0.83818,P,ugm-3
08-01-2024,15:00,20.290,P,ugm-3 (Ref.eq),2.22175,P,ugm-3,8.03967,P,ugm-3,11.44631,P,ugm-3,0.89805,P,ugm-3
08-01-2024,16:00,13.527,P,ugm-3 (Ref.eq),2.25138,P,ugm-3,11.94595,P,ugm-3,15.39802,P,ugm-3,0.71844,P,ugm-3
08-01-2024,17:00,23.189,P,ugm-3 (Ref.eq),2.13288,P,ugm-3,9.58402,P,ugm-3,12.85439,P,ugm-3,0.71844,P,ugm-3
08-01-2024,18:00,15.459,P,ugm-3 (Ref.eq),1.77740,P,ugm-3,3.58833,P,ugm-3,6.31364,P,ugm-3,3.65209,P,ugm-3
08-01-2024,19:00,12.561,P,ugm-3 (Ref.eq),1.54042,P,ugm-3,0.86302,P,ugm-3,3.22495,P,ugm-3,1.43689,P,ugm-3
08-01-2024,20:00,16.425,P,ugm-3 (Ref.eq),1.54042,P,ugm-3,1.90772,P,ugm-3,4.26966,P,ugm-3,5.02910,P,ugm-3
08-01-2024,21:00,13.527,P,ugm-3 (Ref.eq),1.51079,P,ugm-3,1.18097,P,ugm-3,3.49748,P,ugm-3,3.59222,P,ugm-3
08-01-2024,22:00,11.594,P,ugm-3 (Ref.eq),1.36268,P,ugm-3,2.86158,P,ugm-3,4.95098,P,ugm-3,2.27507,P,ugm-3
08-01-2024,23:00,18.358,P,ugm-3 (Ref.eq),1.48117,P,ugm-3,0.45422,P,ugm-3,2.72531,P,ugm-3,3.29286,P,ugm-3
08-01-2024,24:00,16.425,P,ugm-3 (Ref.eq),1.51079,P,ugm-3,0.68133,P,ugm-3,2.99784,P,ugm-3,1.61650,P,ugm-3
09-01-2024,01:00,16.425,P,ugm-3 (Ref.eq),1.24418,P,ugm-3,1.31723,P,ugm-3,3.22495,P,ugm-3,,,
09-01-2024,02:00,12.561,P,ugm-3 (Ref.eq),1.45155,P,ugm-3,1.31723,P,ugm-3,3.54291,P,ugm-3,4.70979,P,ugm-3
09-01-2024,03:00,13.527,P,ugm-3 (Ref.eq),1.15531,P,ugm-3,-0.04542,P,ugm-3,1.72603,P,ugm-3,3.77183,P,ugm-3
09-01-2024,04:00,13.527,P,ugm-3 (Ref.eq),1.36268,P,ugm-3,0.63591,P,ugm-3,2.72531,P,ugm-3,3.35273,P,ugm-3
09-01-2024,05:00,17.392,P,ugm-3 (Ref.eq),1.46142,P,ugm-3,1.69575,P,ugm-3,3.93656,P,ugm-3,3.41260,P,ugm-3
09-01-2024,06:00,14.493,P,ugm-3 (Ref.eq),1.59966,P,ugm-3,2.04398,P,ugm-3,4.49677,P,ugm-3,1.91585,P,ugm-3
09-01-2024,07:00,16.425,P,ugm-3 (Ref.eq),1.68853,P,ugm-3,5.45063,P,ugm-3,8.03967,P,ugm-3,1.25728,P,ugm-3
09-01-2024,08:00,15.459,P,ugm-3 (Ref.eq),1.86627,P,ugm-3,8.35763,P,ugm-3,11.21920,P,ugm-3,1.85598,P,ugm-3
09-01-2024,09:00,26.087,P,ugm-3 (Ref.eq),2.25138,P,ugm-3,9.31148,P,ugm-3,12.76355,P,ugm-3,1.61650,P,ugm-3
09-01-2024,10:00,28.020,P,ugm-3 (Ref.eq),2.48836,P,ugm-3,10.31077,P,ugm-3,14.12620,P,ugm-3,1.31715,P,ugm-3
09-01-2024,11:00,24.155,P,ugm-3 (Ref.eq),2.42912,P,ugm-3,6.13195,P,ugm-3,9.85655,P,ugm-3,1.79611,P,ugm-3
09-01-2024,12:00,36.716,P,ugm-3 (Ref.eq),2.72535,P,ugm-3,5.54147,P,ugm-3,9.72028,P,ugm-3,5.32845,P,ugm-3
09-01-2024,13:00,30.918,P,ugm-3 (Ref.eq),2.51799,P,ugm-3,5.49605,P,ugm-3,9.35691,P,ugm-3,5.26858,P,ugm-3
09-01-2024,14:00,28.020,P,ugm-3 (Ref.eq),2.34025,P,ugm-3,4.45134,P,ugm-3,8.03967,P,ugm-3,4.19092,P,ugm-3
09-01-2024,15:00,23.189,P,ugm-3 (Ref.eq),2.16251,P,ugm-3,5.58689,P,ugm-3,8.90269,P,ugm-3,1.43689,P,ugm-3
09-01-2024,16:00,31.885,P,ugm-3 (Ref.eq),2.16251,P,ugm-3,10.31077,P,ugm-3,13.62656,P,ugm-3,1.19741,P,ugm-3
09-01-2024,17:00,29.952,P,ugm-3 (Ref.eq),2.34025,P,ugm-3,17.94164,P,ugm-3,21.52997,P,ugm-3,0.95792,P,ugm-3
09-01-2024,18:00,17.392,P,ugm-3 (Ref.eq),1.86627,P,ugm-3,8.08509,P,ugm-3,10.94667,P,ugm-3,0.95792,P,ugm-3
09-01-2024,19:00,18.358,P,ugm-3 (Ref.eq),1.48117,P,ugm-3,0.86302,P,ugm-3,3.13411,P,ugm-3,0.95792,P,ugm-3
09-01-2024,20:00,20.290,P,ugm-3 (Ref.eq),1.42192,P,ugm-3,2.54363,P,ugm-3,4.72388,P,ugm-3,0.95792,P,ugm-3
09-01-2024,21:00,12.561,P,ugm-3 (Ref.eq),1.51079,P,ugm-3,4.76930,P,ugm-3,7.08581,P,ugm-3,0.83818,P,ugm-3
09-01-2024,22:00,11.594,P,ugm-3 (Ref.eq),1.48117,P,ugm-3,5.31436,P,ugm-3,7.58545,P,ugm-3,0.95792,P,ugm-3
09-01-2024,23:00,8.696,P,ugm-3 (Ref.eq),1.42192,P,ugm-3,1.81688,P,ugm-3,3.99713,P,ugm-3,0.95792,P,ugm-3
09-01-2024,24:00,10.628,P,ugm-3 (Ref.eq),1.33305,P,ugm-3,0.13627,P,ugm-3,2.18025,P,ugm-3,0.95792,P,ugm-3
10-01-2024,01:00,14.493,P,ugm-3 (Ref.eq),1.39230,P,ugm-3,-0.18169,P,ugm-3,1.95314,P,ugm-3,0.95792,P,ugm-3
10-01-2024,02:00,7.730,P,ugm-3 (Ref.eq),1.42192,P,ugm-3,-0.13627,P,ugm-3,2.04398,P,ugm-3,0.79827,P,ugm-3
10-01-2024,03:00,3.865,P,ugm-3 (Ref.eq),1.36268,P,ugm-3,-0.90844,P,ugm-3,1.18097,P,ugm-3,0.89805,P,ugm-3
10-01-2024,04:00,2.899,P,ugm-3 (Ref.eq),1.45155,P,ugm-3,-0.59048,P,ugm-3,1.63519,P,ugm-3,0.89805,P,ugm-3
10-01-2024,05:00,2.899,P,ugm-3 (Ref.eq),1.42192,P,ugm-3,-0.99928,P,ugm-3,1.18097,P,ugm-3,0.71844,P,ugm-3
10-01-2024,06:00,5.797,P,ugm-3 (Ref.eq),1.81690,P,ugm-3,4.48162,P,ugm-3,7.26750,P,ugm-3,0.77831,P,ugm-3
10-01-2024,07:00,4.831,P,ugm-3 (Ref.eq),1.65891,P,ugm-3,4.22423,P,ugm-3,6.76786,P,ugm-3,0.83818,P,ugm-3
10-01-2024,08:00,3.865,P,ugm-3 (Ref.eq),2.36987,P,ugm-3,13.03608,P,ugm-3,16.66983,P,ugm-3,0.95792,P,ugm-3
10-01-2024,09:00,7.730,P,ugm-3 (Ref.eq),7.52434,P,ugm-3,42.10608,P,ugm-3,53.64323,P,ugm-3,1.07767,P,ugm-3
10-01-2024,10:00,7.730,P,ugm-3 (Ref.eq),5.71731,P,ugm-3,31.47736,P,ugm-3,40.24378,P,ugm-3,0.95792,P,ugm-3
10-01-2024,11:00,6.763,P,ugm-3 (Ref.eq),4.62125,P,ugm-3,21.75708,P,ugm-3,28.84289,P,ugm-3,0.95792,P,ugm-3
10-01-2024,12:00,3.865,P,ugm-3 (Ref.eq),3.55481,P,ugm-3,14.39873,P,ugm-3,19.84936,P,ugm-3,0.95792,P,ugm-3
10-01-2024,13:00,5.797,P,ugm-3 (Ref.eq),2.54761,P,ugm-3,9.99281,P,ugm-3,13.89909,P,ugm-3,0.95792,P,ugm-3
10-01-2024,14:00,7.730,P,ugm-3 (Ref.eq),2.60686,P,ugm-3,9.26606,P,ugm-3,13.26319,P,ugm-3,0.95792,P,ugm-3
10-01-2024,15:00,7.730,P,ugm-3 (Ref.eq),3.02158,P,ugm-3,11.85511,P,ugm-3,16.48814,P,ugm-3,0.89805,P,ugm-3
10-01-2024,16:00,6.763,P,ugm-3 (Ref.eq),2.10326,P,ugm-3,10.90125,P,ugm-3,14.12620,P,ugm-3,0.89805,P,ugm-3
10-01-2024,17:00,6.763,P,ugm-3 (Ref.eq),1.95514,P,ugm-3,15.21633,P,ugm-3,18.21417,P,ugm-3,0.83818,P,ugm-3
10-01-2024,18:00,6.763,P,ugm-3 (Ref.eq),1.71816,P,ugm-3,10.53788,P,ugm-3,13.17234,P,ugm-3,0.83818,P,ugm-3
10-01-2024,19:00,5.797,P,ugm-3 (Ref.eq),1.45155,P,ugm-3,5.45063,P,ugm-3,7.67630,P,ugm-3,0.89805,P,ugm-3
10-01-2024,20:00,4.831,P,ugm-3 (Ref.eq),1.74778,P,ugm-3,14.85295,P,ugm-3,17.53284,P,ugm-3,0.95792,P,ugm-3
10-01-2024,21:00,5.797,P,ugm-3 (Ref.eq),4.38426,P,ugm-3,13.44488,P,ugm-3,20.16731,P,ugm-3,1.01779,P,ugm-3
10-01-2024,22:00,4.831,P,ugm-3 (Ref.eq),1.98477,P,ugm-3,9.76570,P,ugm-3,12.80897,P,ugm-3,0.89805,P,ugm-3
10-01-2024,23:00,5.797,P,ugm-3 (Ref.eq),1.45155,P,ugm-3,1.86230,P,ugm-3,4.08797,P,ugm-3,0.95792,P,ugm-3
10-01-2024,24:00,4.831,P,ugm-3 (Ref.eq),1.18494,P,ugm-3,2.27109,P,ugm-3,4.08797,P,ugm-3,0.89805,P,ugm-3
11-01-2024,01:00,5.797,P,ugm-3 (Ref.eq),1.48117,P,ugm-3,0.63591,P,ugm-3,2.90700,P,ugm-3,0.95792,P,ugm-3
11-01-2024,02:00,5.797,P,ugm-3 (Ref.eq),1.24418,P,ugm-3,1.45350,P,ugm-3,3.36122,P,ugm-3,1.19741,P,ugm-3
11-01-2024,03:00,5.797,P,ugm-3 (Ref.eq),1.33305,P,ugm-3,2.13483,P,ugm-3,4.17881,P,ugm-3,0.95792,P,ugm-3
11-01-2024,04:00,7.730,P,ugm-3 (Ref.eq),1.65891,P,ugm-3,1.54434,P,ugm-3,4.08797,P,ugm-3,0.95792,P,ugm-3
11-01-2024,05:00,9.662,P,ugm-3 (Ref.eq),1.59966,P,ugm-3,5.40520,P,ugm-3,7.85798,P,ugm-3,0.95792,P,ugm-3
11-01-2024,06:00,8.696,P,ugm-3 (Ref.eq),1.45155,P,ugm-3,1.63519,P,ugm-3,3.86086,P,ugm-3,0.95792,P,ugm-3
11-01-2024,07:00,10.628,P,ugm-3 (Ref.eq),1.62929,P,ugm-3,6.26822,P,ugm-3,8.76642,P,ugm-3,0.89805,P,ugm-3
11-01-2024,08:00,10.628,P,ugm-3 (Ref.eq),3.93991,P,ugm-3,26.02673,P,ugm-3,32.06784,P,ugm-3,0.95792,P,ugm-3
11-01-2024,09:00,12.561,P,ugm-3 (Ref.eq),4.05840,P,ugm-3,29.61506,P,ugm-3,35.83786,P,ugm-3,0.95792,P,ugm-3
11-01-2024,10:00,14.493,P,ugm-3 (Ref.eq),3.85104,P,ugm-3,25.39083,P,ugm-3,31.29567,P,ugm-3,0.95792,P,ugm-3
11-01-2024,11:00,14.493,P,ugm-3 (Ref.eq),3.05121,P,ugm-3,15.48886,P,ugm-3,20.16731,P,ugm-3,0.95792,P,ugm-3
11-01-2024,12:00,23.189,P,ugm-3 (Ref.eq),3.02158,P,ugm-3,12.99066,P,ugm-3,17.62369,P,ugm-3,0.95792,P,ugm-3
11-01-2024,13:00,16.425,P,ugm-3 (Ref.eq),2.16251,P,ugm-3,7.22208,P,ugm-3,10.53788,P,ugm-3,0.89805,P,ugm-3
11-01-2024,14:00,20.290,P,ugm-3 (Ref.eq),2.10326,P,ugm-3,4.54219,P,ugm-3,7.76714,P,ugm-3,0.89805,P,ugm-3
11-01-2024,15:00,14.493,P,ugm-3 (Ref.eq),1.83665,P,ugm-3,2.04398,P,ugm-3,4.86014,P,ugm-3,0.95792,P,ugm-3